www.pogodaiklimat.ru

Погода и климат >> Архив погоды >> Россия >> Краснодарский край >> Горный


ПОГОДА в Горном

  • Прогноз погоды в Горном
  • Монитор погоды в Горном
  • Климат города

АРХИВ ПОГОДЫ в Горном

Время (UTC), дата Ветер
(напр.,м/с)
 
Видим.   Явления Облачность Т
(С)
Тd
(С)
f
(%)
Тe
(С)
Тes
(С)
Комфортность P
(гПа)
Po
(гПа)
Тmin
(С)
Tmax
(С)
R
(мм)
R24
(мм)
S
(см)
00 20.05 СВ 1 50 км 8/4 600 м
[Sc Ci sp]
+15.0 +14.1 94 +15 +15 1014.1 976.4
03 20.05 штиль 0 50 км {ливн. осадки} 9/3 600 м
[Sc Ac cast Ci fib]
+14.9 +14.1 95 +15 +15 1013.8 976.0 +14.6 0.0
06 20.05 штиль 0 50 км {ливн. осадки} 10/4 600 м
[Sc Ac cast Cc]
+22.3 +15.3 65 +26 +30 жарко 1013.0 976.2
09 20.05 ЮЗ 3 50 км 10/5 600 м
[Sc Ac cast Ci]
+24.6 +13.6 50 +27 +31 жарко 1012.9 976.4
12 20.05 ЮЗ 5
{11}
50 км 8/5 600 м
[Cu med, cong Ci]
+25.2 +13.5 48 +27 +30 жарко 1012.0 975.6
15 20.05 ЮЗ 2 50 км 9/4 600 м
[Sc diur, vesp Cc]
+23.7 +14.1 55 +26 +27 жарко 1012.3 975.7 +25.6
18 20.05 штиль 0 50 км 8/0
[Ac lent Ci fib]
+17.4 +15.0 86 +17 +17 1014.0 976.6
21 20.05 С 1 50 км 6/0
[Ac lent Ci fib]
+14.8 +14.0 95 +15 +15 1014.3 976.5
00 21.05 штиль 0 50 км местами туман поземный 3/0
[Ci fib]
+12.9 +12.3 96 +12 +12 1014.6 976.5
03 21.05 СВ 1 50 км 10/10 600 м
[Sc]
+13.4 +13.0 97 +13 +13 1015.7 977.7 +12.9
06 21.05 В 1 50 км 5/3 600 м
[Cu med, cong Cc]
+21.8 +15.9 69 +25 +33 комфорт 1015.6 978.6
09 21.05 ЮЗ 3 50 км 6/5 600 м
[Cu med, cong Ci fib]
+24.4 +14.8 55 +27 +35 жарко 1015.3 978.7
12 21.05 ЮЗ 4 50 км гроза без осадков 5/5 600 м
[Cb cap]
+24.3 +12.9 49 +26 +31 жарко 1015.7 979.0
15 21.05 ЮЗ 3 50 км в посл. час гроза 3/3 600 м
[Cu med, cong]
+21.9 +14.1 61 +25 +26 комфорт 1016.4 979.4 +24.9
18 21.05 З 1 50 км {гроза} 1/1 600 м
[Sc diur, vesp]
+17.5 +14.0 80 +19 +19 1018.1 980.5
21 21.05 В 1 50 км 1/0
[Ac lent]
+14.1 +13.4 96 +14 +14 1018.9 980.8
00 22.05 штиль 0 10 км туман поземный ясно +12.2 +11.7 97 +12 +12 1019.2 980.9
03 22.05 С 1 500 м туман 10/0
[Cs]
+12.4 +12.1 98 +12 +13 1019.1 980.9 +11.7
06 22.05 С 3 50 км {туман} 10/0
[Cs]
+20.6 +15.9 74 +24 +31 комфорт 1018.1 980.9
09 22.05 С 4
{10}
50 км 8/8 600 м
[Cu med, cong]
+24.2 +16.5 62 +28 +30 душно 1017.1 980.5
12 22.05 СВ 4 50 км 8/8 600 м
[Sc diur, vesp]
+25.4 +15.3 54 +28 +30 жарко 1016.2 979.7
15 22.05 СВ 4 50 км 5/3 600 м
[Sc diur, vesp Ac lent]
+24.8 +15.1 55 +28 +28 жарко 1016.2 979.7 +26.6
18 22.05 СВ 3 50 км 9/4 600 м
[Sc Ac cast]
+21.7 +16.0 70 +25 +25 комфорт 1017.1 980.1
21 22.05 С 1 50 км 9/6 600 м
[Sc Ac lent]
+18.0 +16.1 89 +19 +19 1016.9 979.5
00 23.05 штиль 0 50 км 10/1 600 м
[Sc Cs]
+16.6 +15.4 93 +16 +16 1017.2 979.6
03 23.05 штиль 0 50 км 10/10 600 м
[Sc]
+16.2 +15.0 93 +16 +16 1017.8 980.0 +15.9
06 23.05 С 1 50 км 9/6 600 м
[Sc Ac cast]
+21.1 +17.3 79 +25 +27 комфорт 1017.2 980.1
09 23.05 С 1 50 км 6/3 600 м
[Cu Sc Ac cast Ci sp]
+25.5 +17.2 60 +29 +41 душно 1016.5 980.0
12 23.05 ЮВ 2
{15}
10 км гроза, ливневой дождь [макс. диам. градин 11 мм] 10/10 600 м
[Cb cap]
+17.1 +17.0 99 +17 +17 1018.5 980.9
15 23.05 СВ 2 50 км {гроза, ливн. осадки} 9/8 600 м
[Sc diur, vesp Ac cuf]
+18.8 +18.2 96 +21 +21 комфорт 1016.8 979.5 +26.0 22
18 23.05 СВ 3 50 км {гроза, ливн. осадки} 9/5 600 м
[Sc diur, vesp Ac cuf]
+18.5 +17.6 94 +19 +19 1016.2 978.9
21 23.05 С 3 20 км слабый ливневой дождь 10/10 600 м
[Cb cap]
+17.6 +16.3 92 +18 +18 1016.0 978.5
00 24.05 Ю 1 20 км местами туман поземный {ливн. осадки} 10/10 600 м
[Sc diur, vesp]
+16.2 +16.1 99 +17 +17 1015.4 977.8
03 24.05 ЮЗ 1 20 км местами туман поземный {ливн. осадки} 10/10 600 м
[Sc diur, vesp]
+15.7 +15.7 100 +16 +16 1015.9 978.2 +15.7 0.5
06 24.05 С 1 20 км слабый ливневой дождь 10/10 600 м
[Cb cap]
+16.2 +16.1 99 +17 +17 1016.2 978.5
09 24.05 СВ 4 50 км {ливн. осадки} 10/10 600 м
[Sc diur, vesp]
+18.4 +17.3 93 +19 +19 1014.8 977.5
12 24.05 В 4 50 км {ливн. осадки} 10/5 600 м
[Sc Cc]
+21.9 +15.2 66 +25 +29 комфорт 1013.4 976.5
15 24.05 В 4
{10}
50 км 10/6 600 м
[Sc Cs]
+20.4 +14.4 68 +23 +23 комфорт 1012.7 975.7 +22.2 1
18 24.05 СВ 4 50 км 9/5 600 м
[Sc Ac cast]
+19.1 +15.5 80 +20 +20 1011.8 974.6
21 24.05 С 1 50 км 10/6 600 м
[Sc Ac cast]
+16.1 +15.2 94 +17 +17 1011.5 974.0
00 25.05 штиль 0 50 км 8/6 600 м
[Sc Ac lent]
+15.0 +14.3 96 +15 +15 1011.0 973.4
03 25.05 СВ 1 10 км местами туман поземный 8/8 600 м
[Sc]
+14.6 +14.0 96 +15 +15 1010.8 973.1 +13.7
06 25.05 СВ 2 50 км 5/0
[Ac cast]
+18.8 +16.3 85 +20 +27 1010.2 973.1
09 25.05 СВ 3 50 км 3/3 600 м
[Cu med, cong]
+25.4 +17.0 60 +29 +40 душно 1008.8 972.6
12 25.05 С 2 20 км гроза без осадков 8/8 600 м
[Cb calv]
+25.7 +16.9 58 +29 +32 душно 1008.2 972.1
15 25.05 СВ 2
{12}
50 км {гроза, ливн. осадки} 8/3 600 м
[Sc diur, vesp Ac As Ci]
+19.6 +17.1 85 +22 +24 комфорт 1009.2 972.3 +27.2 4
18 25.05 СВ 1 20 км местами туман поземный {гроза, ливн. осадки} 9/6 600 м
[Sc Ac lent]
+18.1 +17.3 95 +19 +19 1010.3 973.2
21 25.05 С 2 50 км туман поземный 3/0
[Ac cast]
+17.3 +16.9 97 +18 +18 1010.3 973.0
00 26.05 С 1 10 км в посл. час туман 1/0
[Ac trans]
+15.6 +15.1 97 +16 +16 1010.4 972.9
03 26.05 СВ 1 20 км в посл. час туман 8/3 600 м
[Sc Ac cast Ci fib]
+15.6 +14.9 96 +16 +17 1011.0 973.5 +14.6
06 26.05 СВ 4 50 км {туман} 8/3 600 м
[Sc Ci]
+22.1 +18.4 80 +27 +31 душно 1011.0 974.3
09 26.05 СВ 5
{11}
50 км 9/6 600 м
[Sc diur, vesp Ci]
+25.2 +18.3 66 +30 +33 душно 1011.0 974.7
12 26.05 СВ 5-11
{12}
20 км 9/9 600 м
[Sc diur, vesp]
+24.2 +17.9 68 +28 +29 душно 1012.4 975.9
15 26.05 СВ 6-12
{15}
20 км 10/8 600 м
[Sc diur, vesp Cs]
+20.3 +14.7 70 +23 +23 комфорт 1013.8 976.8 +26.0
18 26.05 СВ 5
{13}
50 км 5/5 600 м
[Sc]
+18.3 +12.7 70 +18 +18 1015.3 977.9
21 26.05 СВ 5 50 км 8/0
[Ci]
+16.5 +11.3 71 +16 +16 1015.2 977.6

 

Местоположение метеостанции Горный (Краснодарский край, Россия): широта 44.28 долгота 39.27 высота над уровнем моря 323 м.

В архиве по умолчанию представлена погода в Горном за последнюю неделю. Архивные данные за месяц целиком и за предыдущие месяцы, начиная с января 2011 года, Вы можете получить, выбрав интересующий диапазон дат из раскрывающегося списка и нажав кнопку "Ввод!".


*Определитесь, кто Вы:
робот инопланетянин человек

Внимание! Время в таблицах - всемирное. Для получения местного времени необходимо прибавить поправку, которая в Горном равна 3 ч.

Смотрите также архив погоды в соседних городах и на ближайших метеорологических станциях:

Погода в Туапсе (Краснодарский край, Россия) (26 км)
Погода в Магри (Краснодарский край, Россия) (30 км)
Погода в Горячем Ключе (Краснодарский край, Россия) (41 км)
Погода в Лазаревском (Краснодарский край, Россия) (43 км)
Погода в Джубге (Краснодарский край, Россия) (44 км)
Погода в Кичмае (Краснодарский край, Россия) (54 км)
Погода в Солох Ауле (Краснодарский край, Россия) (61 км)
Погода в Шунтуке (Адыгея, Россия) (71 км)
Погода в Белореченске (Краснодарский край, Россия) (72 км)
Погода в Майкопе (Адыгея, Россия) (75 км)

Пояснения к столбцам:

Ветер - указаны скорость ветра в м/с - средняя за 10 мин, порывы в срок и между сроками (в фигурных скобках) и направление, откуда дует ветер: С - северный, СВ - северо-восточный, В - восточный, ЮВ - юго-восточный, Ю - южный, ЮЗ - юго-западный, З - западный, СЗ - северо-западный.
Видимость - горизонтальная дальность видимости в метрах или километрах. При видимости от 1 до 10 км при отсутствии осадков обычно наблюдается дымка, при ухудшении видимости до 1 км и менее - туман. В сухую погоду видимость может ухудшаться дымом, пылью или мглою.
Явления - указаны атмосферные явления, наблюдавшиеся в срок или в последний час перед сроком; фигурными скобками обозначены явления, наблюдавшиеся между сроками (за 1-3 часа до срока); квадратными скобками обозначены град или гололедные отложения с указанием их диаметра в мм.
Облачность - указаны через наклонную черту общая и нижняя облачность в баллах и высота нижней границы облаков в метрах; квадратными скобками обозначены формы облаков: Ci - перистые, Cs - перисто-слоистые, Cc - перисто-кучевые, Ac - высококучевые, As - высокослоистые, Sc - слоисто-кучевые, Ns - слоисто-дождевые, Cu - кучевые, Cb - кучево-дождевые. Подробнее классификацию облаков см. в Атласе облаков (PDF).
T - Температура воздуха - температура, измеренная на высоте 2 м над землей.
Td - Температура точки росы - температура, при понижении до которой содержащийся в воздухе водяной пар достигнет насыщения.
f - Относительная влажность воздуха - влажноcть воздуха, измеренная на высоте 2 м над землей.
Te - Эффективная температура - температура, которую ощущает одетый по сезону человек в тени. Характеристика душности погоды. При расчете учитывается влияние влажности воздуха и скорости ветра на теплоощущения человека.
Tes - Эффективная температура на солнце - температура, которую ощущает человек, с поправкой на солнечный нагрев. Характеристика знойности погоды. Зависит от высоты солнца над горизонтом, облачности и скорости ветра. Ночью, в пасмурную погоду, а также при ветре 12 м/с и более поправка равна нулю.
P - Атмосферное давление - приведенное к уровню моря атмосферное давление.
Po - Атмосферное давление - измеренное на уровне метеостанции атмосферное давление.
Tmin - Минимальная температура - минимум температуры воздуха на высоте 2 м над землей.
Tmax - Максимальная температура - максимум температуры воздуха на высоте 2 м над землей.
R - Количество осадков - Количество выпавших осадков за период времени, мм. При наведении курсора мыши на число - период времени, за который выпало указанное количество осадков.
R24 - Количество осадков - Количество выпавших осадков за 24 часа, мм.
S - Снежный покров - Высота снежного покрова, см. При наведении курсора мыши на число - состояние снежного покрова и степень покрытия местности в баллах.